793  
ASUS42 KCAE 180110  
RWRCAE  
REGIONAL WEATHER ROUNDUP  
NATIONAL WEATHER SERVICE COLUMBIA SC  
900 PM EDT THU AUG 17 2017  
 
NOTE: "FAIR" INDICATES FEW OR NO CLOUDS BELOW 12,000 FEET WITH NO  
SIGNIFICANT WEATHER AND/OR S TO VISIBILITY
.  
 
NOT ALL STATIONS ARE QUALITY CONTROLLED BY THE NATIONAL  
WEATHER SERVICE. USE DATA WITH CAUTION...ESPECIALLY  
DEWPOINT OBSERVATIONS.  
 
SCZ001>056-GAZ040-063>065-077-180200-   
..UPSTATE SOUTH CAROLINA
 
 
 
CITY SKY/WX TMP DP RH WIND PRES REMARKS
 
ANDERSON CLEAR 85 74 69 SW6 30.00R  
LIBERTY PTCLDY 80 75 84 SW5 30.00R  
SPARTANBURG CLEAR 81 72 74 CALM 29.98R  
CLEMSON CLEAR 84 74 71 VRB5 30.01R  
GREENVILLE CLEAR 87 72 60 SW8 30.00S  
GREENWOOD CLOUDY 83 75 77 SW6 30.00S  
GREER CLEAR 83 73 72 SW6 29.98S  
ROCK HILL CLEAR 82 76 81 SW5 29.98S  
CHESTER CLEAR 82 72 69 S5 29.98S  
LAURENS CLEAR 86 72 62 W3 29.98S  
 
   
..CENTRAL SOUTH CAROLINA
 
 
 
CITY SKY/WX TMP DP RH WIND PRES REMARKS
 
COLUMBIA APT PTCLDY 87 76 69 CALM 29.96R HX 97  
COLUMBIA OWENS MOCLDY 89 77 67 CALM 29.96S HX 101  
MCENTIRE ANGB LGT RAIN 86 77 74 SE7 29.97R HX 97  
ORANGEBURG CLOUDY 82 74 76 SE9 29.98R  
SUMTER SHAW CLEAR 86 76 71 S8 29.94S HX 96  
NEWBERRY CLEAR 86 73 66 SW6 30.00S  
AIKEN FAIR 82 73 74 SW3 30.02S  
BARNWELL FAIR 88 79 74 CALM 29.98S HX 102  
MANNING FAIR 82 73 74 MISG 29.97S  
CAMDEN FAIR 88 75 66 CALM 29.96S HX 97  
LANCASTER PTCLDY 82 79 89 CALM 29.97S  
WINNSBORO CLEAR 86 72 62 SW6 29.97S  
 
   
..EASTERN AND COASTAL SOUTH CAROLINA
 
 
 
CITY SKY/WX TMP DP RH WIND PRES REMARKS
 
MYRTLE BEACH PTCLDY 82 75 78 S6 29.98S  
N MYRTLE BCH CLOUDY 78 78 100 CALM 29.97S  
CONWAY FAIR 77 73 88 CALM 29.98S  
MARION FAIR 79 73 83 S6 29.97S  
HARTSVILLE FAIR 81 75 83 SE3 29.96R  
FLORENCE CLOUDY 83 78 85 S9 29.97R  
DARLINGTON PTCLDY 81 78 91 S5 29.96S  
CHARLESTON APT MOCLDY 83 79 88 S7 29.98S  
MOUNT PLEASANT FAIR 81 79 94 CALM 29.98S FOG  
WALTERBORO CLOUDY 82 77 83 CALM 30.00R  
BEAUFORT CLOUDY 86 80 82 S7 29.99R HX 101  
 
   
..EASTERN GEORGIA
 
 
 
CITY SKY/WX TMP DP RH WIND PRES REMARKS
 
AUGUSTA BUSH F PTCLDY 87 77 72 W5 29.97R HX 99  
AUGUSTA DANIEL CLEAR 88 72 58 VRB3 30.00R  
THOMSON PTCLDY 82 76 82 CALM 30.05S  
WASHINGTON FAIR N/A N/A N/A SW3 30.01S  
CLAXTON FAIR 85 76 74 CALM 30.00R THUNDER HX 95  
SYLVANIA CLEAR 83 81 93 CALM 30.00R HX 98  
STATESBORO CLOUDY 87 74 64 S5 30.00R THUNDER HX 95  
SAVANNAH PTCLDY 85 78 80 S9 30.01R HX 96  
 
   
..SOUTHERN NORTH CAROLINA
 
 
 
CITY SKY/WX TMP DP RH WIND PRES REMARKS
 
CHARLOTTE PTCLDY 85 76 74 S7 29.98R  
MONROE CLEAR 82 74 76 S5 29.97R  
WADESBORO CLEAR 82 74 75 SE3 29.95S  
ROCKINGHAM CLOUDY 83 78 86 S6 29.96S  
RUTHERFORDTON PTCLDY 79 75 89 CALM 30.01S  
ASHEVILLE MOCLDY 76 71 85 CALM 30.08R  
 

 
 
 
CLICK HERE TO GO TO PREVIOUS BULLETINS.

The Nexlab SC Page
The Nexlab GA Page Main Text Page